Regional Weather Roundup
Issued by NWS

Home | Current Version | Previous Version | Graphics & Text | Print | Product List | Glossary Off
Versions: 1 2 3 4 5 6 7 8 9 10 11 12 13 14 15 16 17 18 19 20 21 22 23 24 25 26 27 28 29 30 31 32 33 34 35 36 37 38 39 40 41 42 43 44 45 46 47 48 49 50

000
ASUS43 KMKX 241911
RWRWI

WISCONSIN REGIONAL WEATHER ROUNDUP
NATIONAL WEATHER SERVICE MILWAUKEE/SULLIVAN WI
200 PM CDT FRI APR 24 2015

NOTE: "FAIR" INDICATES FEW OR NO CLOUDS BELOW 12,000 FEET WITH NO
SIGNIFICANT WEATHER AND/OR OBSTRUCTIONS TO VISIBILITY.

WIZ001-002-006>008-014>016-023>028-242000-
NORTHWEST WISCONSIN

CITY           SKY/WX    TMP DP  RH WIND       PRES   REMARKS
SUPERIOR ARPT  CLOUDY    39  33  79 NE8       29.98S WCI  33
ASHLAND        CLOUDY    43  33  68 S7        30.01F
HAYWARD        CLOUDY    40  31  70 E6        29.98R
SIREN          CLOUDY    49  21  33 SE6       29.93R
CUMBERLAND     CLOUDY    46  21  36 E8        29.91F
RICE LAKE      CLOUDY    51  20  29 E9        29.92F
CHETEK         CLOUDY    51  22  31 E8        29.91F
LADYSMITH      CLOUDY    51  17  26 E9        29.97F
EAU CLAIRE     CLOUDY    56  19  23 S12       29.90F
MENOMONIE      CLOUDY    54  19  25 SE12      29.90F
NEW RICHMOND   CLOUDY    52  23  33 SE7       29.89F
OSCEOLA        CLOUDY    51  23  32 SE13      29.92S
$$

WIZ003>005-009-010-017-018-242000-
NORTH CENTRAL WISCONSIN

CITY           SKY/WX    TMP DP  RH WIND       PRES   REMARKS
MANITOWISH WTR CLOUDY    41  27  58 SW9       29.99F
ARBOR VITAE    LGT RAIN  42  26  53 CALM      30.00S
WOODRUFF       LGT RAIN  42  26  53 CALM      30.00S
RHINELANDER    CLOUDY    45  19  35 SE6       29.99F
EAGLE RIVER    PTSUNNY   47  12  24 SW5       29.97F
LAND O LAKES   CLOUDY    49  12  22 CALM      29.99F
PHILLIPS       CLOUDY    43  25  48 NE8       29.98F
TOMAHAWK       CLOUDY    48  15  26 CALM      29.98F
MEDFORD        CLOUDY    51  21  30 SE9       29.95F
MERRILL        CLOUDY    51  17  25 SE3       29.97F
$$

WIZ029-030-035-036-043>047-242000-
CENTRAL WISCONSIN

CITY           SKY/WX    TMP DP  RH WIND       PRES   REMARKS
WAUSAU         CLOUDY    53  15  22 SE6       29.95F
MOSINEE        CLOUDY    54  18  24 E7        29.98F
MARSHFIELD     CLOUDY    57  18  21 S15       29.94F
STEVENS POINT  CLOUDY    53  17  24 S5        29.97F
WAUPACA        SUNNY     59  20  21 SE9G21    29.99F
WAUTOMA        MOSUNNY   59  15  18 SE10      29.97F
WISC RAPIDS    PTSUNNY   58  15  18 S8        29.96F
CAMP DOUGLAS   CLOUDY    55  18  22 S9        29.94F
$$

WIZ011>013-019>022-031-037>040-048>050-242000-
NORTHEAST WISCONSIN

CITY           SKY/WX    TMP DP  RH WIND       PRES   REMARKS
ANTIGO         CLOUDY    48  19  31 SE5       29.99F
SHAWANO        CLOUDY    55  21  27 CALM      30.01F
OCONTO         SUNNY     46  27  47 E7        30.04F
STURGEON BAY   SUNNY     45  21  39 SE8       30.08F
GREEN BAY      MOSUNNY   53  23  31 SE9G16    30.02F
MANITOWOC      SUNNY     44  24  45 SE14      30.06F
APPLETON       MOSUNNY   54  21  28 SE10G17   30.00F
CLINTONVILLE   PTSUNNY   54  19  26 SE10      30.00F
OSHKOSH        SUNNY     55  26  32 E14G20    29.99F
$$

WIZ032>034-041-042-053>061-242000-
SOUTHWEST WISCONSIN

CITY           SKY/WX    TMP DP  RH WIND       PRES   REMARKS
LA CROSSE      LGT RAIN  53  27  36 S14G28    29.92F
SPARTA         CLOUDY    56  19  23 S12       29.94S
VIROQUA        CLOUDY    47  30  50 SE9       29.94F
BOSCOBEL       LGT RAIN  47  35  63 VRB5      29.98S
PRAIRIE DU CHI LGT RAIN  43  36  75 E13       29.93F
PLATTEVILLE    CLOUDY    46  37  69 E10       29.95F
$$

WIZ056-057-062-063-064-067-068-242000-
SOUTH CENTRAL WISCONSIN

CITY           SKY/WX    TMP DP  RH WIND       PRES   REMARKS
REEDSBURG      CLOUDY    53  19  26 SE6       29.96S
BARABOO/DELLS  CLOUDY    54  14  20 SE14      29.96F
LONE ROCK      LGT RAIN  51  30  44 S14       29.97F
MINERAL POINT  HVY RAIN  43  32  65 E6        29.97S
MADISON        CLOUDY    53  18  25 S12       29.97F
MIDDLETON      CLOUDY    54  15  21 S9        29.98F
WATERTOWN      MOSUNNY   56  22  27 S12       29.98F
MONROE         LGT RAIN  50  28  43 SE12      29.98S
JANESVILLE     CLOUDY    55  18  22 S12       30.00S
$$

WIZ051-052-058>065-066-070>072-242000-
SOUTHEAST WISCONSIN

CITY           SKY/WX    TMP DP  RH WIND       PRES   REMARKS
MILWAUKEE      PTSUNNY   46  28  49 E10       30.03F
WAUKESHA       PTSUNNY   52  28  40 E14       30.00F
MILWAUKEE/TIMM CLOUDY    48  25  40 E12       30.03F
RACINE         CLOUDY    44  32  62 E9        30.04F
BURLINGTON     PTSUNNY   55  18  22 S8        29.99F
KENOSHA        PTSUNNY   51  24  34 E10       30.02F
FOND DU LAC    PTSUNNY   56  25  30 SE13G20   29.99F
SHEBOYGAN      SUNNY     48  21  34 SE13G18   30.05F
WEST BEND      CLOUDY    52  23  32 E10       30.01F
JUNEAU         CLOUDY    55  19  24 SE13      29.99F
$$

LSZ147-162-242000-
LAKE SUPERIOR

STATION/POSITION TIME  TEMP    WIND        PRES    WAVE
                       AIR SEA DIR/SP/G            HT/PER
                 (UTC) (F)     (DEG/KT/KT) (MB)    (FT/S)
W MID LAKE BUOY  1850   35 35   60/ 14/ 16 1018.5F   1/ 3
DEVILS ISLAND    1900   36      80/ 14/ 16 1017.3F
PORT WING        1840   38      20/  8/ 10 1015.9F
SAXON HARBOR     1820   41     330/  3/  4 1016.3R
$$

LMZ867-665-643>646-242000-
LAKE MICHIGAN

STATION/POSITION TIME  TEMP    WIND        PRES    WAVE
                       AIR SEA DIR/SP/G            HT/PER
                 (UTC) (F)     (DEG/KT/KT) (MB)    (FT/S)
CHAMBERS ISLAND  1800   38      20/  8/ 10 1018.6F
NORTHPORT PIER   1800   36     110/  9/ 11 1019.0F
SISTER BAY       1732   47     160/  9/ 12   N/A
KEWAUNEE LAKESHO 1800   39     100/  5/  8 1017.8F
SHEBOYGAN LAKESH 1900   38     150/  7/  7 1018.7F
PORT WASHINGTON  1840   40      80/  4/  6 1018.3F
MILWAUKEE LAKESH 1800   39      90/  7/  8   N/A
KENOSHA   LAKESH 1900   44     110/  4/  6 1016.9F
$$

TC  - TEMPERATURE IN CELSIUS
VSB - VISIBILITY IN STATUTE MILES
WCI - WIND CHILL INDEX
HX  - HEAT INDEX



USA.gov is the U.S. government's official web portal to all federal, state and local government web resources and services.